Location: Moena
(46.3667°N, 11.6500°E)
Time: 14:37:20
(UTC+00:00)

Cosmos 2333 Rocket - Pass Details

Date: 22 June 2021
Orbit: 841 x 861 km, 70.8° (Epoch: 26 July)

Event Time Altitude Azimuth Distance (km) Brightness Sun altitude
Rises 19:51:42 0° 189° (S) 3,420 5.0 -6.4°
Reaches altitude 10° 19:54:12 10° 185° (S) 2,486 4.3 -6.7°
Maximum altitude 19:59:43 53° 110° (ESE) 1,048 2.4 -7.3°
Drops below altitude 10° 20:05:16 10° 35° (NE) 2,491 4.8 -8.0°
Sets 20:07:46 0° 31° (NNE) 3,428 5.6 -8.3°
